Weather in Vasilevichi

Russia / Smolensk Oblast     54°29′48″N   31°13′18″E
temp.,
°C
wind,
m/s
gust,
m/s
humid.,
%
clouds,
%
prec.,
mm/h
press.,
hPa
HPBL,
m
8 may, sat
sat800:00+8s5119461 2.2 1005538
03:00+7sw3696100 2.4 1004293
06:00+6wnw5895100 0.0 1005485
09:00+6nw6886100 0.0 1007762
12:00+8nnw5774100 0.1 10071225
15:00+10nw6755100 0.3 10081857
18:00+7nw8107198 0.2 10101038
21:00+4wnw41074100 0.2 1013429
9 may, sun
sun900:00+2wnw410865 0.0 1014207
03:00+1wnw512855 0.0 1017306
06:000wnw310880 0.0 1019246
09:00+6nw57630 0.0 1021665
12:00+10nw57465 0.0 10222015
15:00+11wnw564295 0.0 10232322
18:00+11wnw344957 0.0 10241782
21:00+6ssw226213 0.0 102610
10 may, mon
mon1000:00+5s46655 0.0 102775
03:00+4s487122 0.0 1028121
06:00+3s377848 0.0 1029121
09:00+10ssw47655 0.0 1030401
12:00+14ssw555489 0.0 10291156
15:00+15ssw455195 0.0 10291343
18:00+15ssw346165 0.0 10281171
21:00+9se33783 0.0 102928
11 may, tue
tue1100:00+8s35780 0.0 103066
03:00+6sse34805 0.0 103055
06:00+6sse35815 0.0 103082
09:00+12se45625 0.0 1030379
12:00+16se46535 0.0 10291049
15:00+18ese45525 0.0 10281267
18:00+17ese466348 0.0 10271085
21:00+12ese410806 0.0 1027162
12 may, wed
wed1200:00+9ese41084100 0.0 1027173
03:00+8ese35895 0.0 102691
06:00+8e36894 0.0 1026120
09:00+14ene58680 0.0 1024430
12:00+18e79600 0.0 10231026
15:00+20e7116296 0.1 10211548
18:00+16ese6137993 0.4 10211140
21:00+13ese498599 0.4 1021451